Temp
8 8 8 8 8 8 8 8 8 9 9 9 9 9 10 10 11 11 11 11 11 11 10 10 11 11 11 11 11 11 11 11 11 11 11 11 11 11 11 11 10 10 10 10 10 10 10 10 10 10 10 10 11 11 11 11 11 11 11 11 11 11 11 11 11 11 11 11 11
8 8 8 8 8 8 8 8 8 8 9 9 9 9 10 10 10 11 11 11 11 11 11 10 10 10 11 11 11 11 11 11 11 11 11 11 11 11 11 10 10 10 10 10 11 11 10 10 10 10 10 10 10 10 11 11 11 11 11 11 11 11 11 11 11 11 11 11 10
8 8 8 8 8 9 9 9 8 8 8 9 9 9 10 10 10 10 11 11 11 11 10 10 10 10 10 11 11 11 11 11 11 11 11 11 11 11 10 9 10 10 11 11 11 11 10 10 10 10 10 10 10 11 11 11 11 11 11 11 11 11 11 10 10 10 10 10 9
8 8 8 8 9 9 9 9 9 8 8 9 9 9 10 10 10 10 10 11 11 10 10 10 10 10 10 10 11 11 11 11 11 10 10 10 10 10 10 9 10 10 10 10 10 10 10 10 10 10 10 10 11 11 11 11 11 11 11 11 11 10 10 10 10 9 9 9 8
8 8 8 9 9 9 8 9 9 8 8 8 9 9 10 10 10 10 10 10 10 10 10 10 10 10 10 10 10 10 10 10 10 10 10 10 10 10 9 9 9 9 9 9 10 10 10 10 10 10 11 11 11 11 11 11 11 10 10 10 10 10 10 9 9 8 8 7 7
8 8 8 9 9 9 8 9 8 8 8 9 9 9 10 10 9 10 10 10 10 10 10 10 10 10 10 10 10 10 10 10 10 10 9 9 9 9 9 9 9 9 9 10 10 10 10 10 11 11 11 11 11 11 11 11 10 10 10 10 9 9 9 8 8 7 7 7 6
8 8 8 9 9 9 9 9 8 8 8 9 9 9 10 10 9 9 10 10 10 10 10 9 9 10 10 10 10 10 10 10 10 10 9 9 9 9 9 9 10 10 10 10 10 10 11 11 11 11 11 11 11 10 10 10 10 9 9 9 9 8 8 7 7 7 7 6 6
8 8 8 9 9 9 9 8 8 8 9 9 9 9 10 10 9 9 9 10 10 10 9 9 9 10 10 10 10 10 10 10 10 10 10 10 10 10 10 10 10 10 10 10 10 11 11 11 11 11 10 10 10 9 9 9 9 9 8 8 8 7 7 7 6 6 6 6 6
8 8 8 9 9 9 8 9 9 9 9 9 9 9 10 10 10 10 9 10 9 9 9 9 9 9 9 9 9 9 9 9 9 9 9 9 10 10 10 10 10 10 10 11 11 11 11 11 10 10 9 9 9 8 8 8 8 8 8 7 7 7 7 6 6 6 6 6 6
8 8 8 8 8 8 8 8 9 9 9 9 9 9 9 9 10 10 10 9 9 9 9 9 9 9 9 9 9 9 9 9 9 9 9 9 10 10 10 10 10 10 11 11 11 11 10 10 10 9 9 8 8 7 7 7 7 7 7 7 7 7 7 7 7 7 7 7 7
8 8 8 8 8 8 8 8 8 9 9 9 9 9 9 9 9 9 9 9 9 9 9 9 9 9 9 9 9 9 9 8 8 8 8 9 9 9 10 10 10 10 10 10 10 10 10 9 9 8 8 7 7 7 7 7 7 7 7 7 7 7 7 7 7 7 7 7 7
8 8 8 8 8 8 8 8 8 8 8 9 8 8 8 8 9 9 9 9 9 9 9 9 9 9 9 9 9 9 8 8 8 8 8 9 9 9 9 10 10 10 10 9 9 9 9 9 8 8 7 7 7 7 7 7 7 7 7 7 7 7 7 7 7 7 7 7 7
7 7 8 8 8 8 8 8 8 8 8 8 8 8 8 8 8 8 8 8 8 8 8 8 8 8 8 8 8 8 8 8 7 7 8 8 8 9 9 9 9 9 9 9 9 8 8 8 7 7 7 7 7 7 7 7 7 7 7 7 7 7 7 7 7 7 7 7 7
7 7 7 7 7 7 8 8 8 8 8 8 8 8 8 8 8 8 8 8 8 8 8 8 8 8 8 8 8 8 7 7 7 7 7 7 8 8 8 8 8 8 8 8 8 8 7 7 7 7 7 7 7 7 7 7 7 7 7 7 7 7 7 7 7 7 7 7 6
7 7 7 7 7 7 7 8 8 8 8 8 8 8 8 8 8 8 8 8 8 8 8 8 8 8 8 8 8 7 7 7 6 6 6 7 7 7 8 8 8 8 8 8 7 7 7 7 7 7 7 7 7 7 7 7 7 7 7 7 7 7 7 7 7 6 6 6 6
7 7 7 7 7 7 7 7 8 8 8 8 8 7 7 7 7 7 7 7 7 7 7 7 7 7 7 7 7 7 7 6 6 6 6 6 6 7 7 7 7 7 7 7 6 6 6 6 7 7 7 7 7 7 7 7 7 7 7 7 7 7 7 6 6 6 6 6 6
6 6 6 7 7 7 7 7 7 8 7 7 7 7 7 7 7 7 7 7 7 7 7 7 6 6 6 6 6 6 6 6 6 5 5 6 6 6 7 7 7 7 6 6 6 6 6 6 7 7 7 7 7 7 7 7 6 6 6 6 6 6 6 6 6 6 5 5 5
5 6 6 6 7 7 7 7 7 7 7 7 7 7 7 7 7 7 7 7 7 6 6 6 6 6 6 6 6 6 6 6 5 5 5 6 6 6 6 6 6 6 6 6 6 6 6 7 7 7 7 7 7 6 6 6 6 6 6 6 5 5 5 5 5 5 5 5 4
5 5 5 6 7 7 7 7 7 7 7 7 6 6 6 6 6 6 6 6 6 6 6 5 5 5 6 6 6 6 6 5 5 5 5 5 6 6 6 6 6 6 6 6 6 6 6 6 6 6 6 6 6 6 6 6 5 5 5 5 5 5 4 4 4 4 4 4 4
5 5 5 6 6 6 6 6 6 6 6 6 6 6 6 6 6 6 6 6 6 5 5 5 5 5 5 5 5 5 5 5 5 5 5 5 5 5 5 5 5 5 6 6 6 6 6 6 6 6 6 6 5 5 5 5 5 4 4 4 4 4 4 4 4 3 3 3 3
5 5 5 6 5 5 5 5 5 5 5 5 5 5 5 5 5 5 5 5 5 5 4 4 4 5 5 5 5 5 5 5 5 5 5 5 5 5 5 5 5 5 5 5 5 5 5 5 5 5 5 5 5 5 5 4 4 4 4 4 4 3 3 3 3 3 3 3 3
5 5 5 5 5 4 4 4 4 4 4 4 4 4 4 4 4 4 4 4 4 4 4 4 4 5 5 5 5 5 5 5 5 5 5 5 5 5 5 5 5 5 5 5 5 5 5 5 5 5 5 5 5 4 4 4 4 4 4 3 3 3 3 3 3 3 3 3 2
5 5 5 4 4 4 4 4 4 4 4 4 4 4 4 4 4 4 4 4 4 4 4 4 4 5 5 5 5 5 5 5 5 5 5 5 5 4 4 4 4 4 4 4 4 4 4 4 4 4 4 4 4 4 4 4 4 3 3 3 3 3 3 3 2 2 2 2 2
4 4 4 4 4 4 4 4 3 4 4 4 4 3 3 4 4 4 4 4 4 4 4 4 4 4 5 5 5 5 5 5 5 4 4 4 4 4 4 4 4 4 4 4 4 4 4 4 4 4 4 4 4 4 4 4 3 3 3 3 3 3 2 2 2 2 2 1 1
3 3 3 3 3 3 3 3 3 4 4 4 4 4 4 4 4 4 4 4 4 4 4 4 5 5 5 5 5 4 4 4 4 3 3 3 3 3 4 4 4 4 4 3 3 3 3 4 4 4 4 4 4 4 4 3 3 3 3 2 2 2 2 2 2 1 1 1 1
2 2 2 2 3 3 3 3 3 3 4 4 4 4 4 4 4 4 4 4 4 4 4 4 4 4 4 4 4 3 3 3 3 3 3 3 4 4 4 4 4 4 3 3 3 2 2 3 3 4 4 3 3 3 3 3 2 2 2 2 2 2 1 1 1 1 0 0 -0
2 2 2 2 2 2 3 3 3 3 4 4 4 4 4 4 4 4 4 4 4 4 4 4 4 4 3 3 3 3 3 3 3 4 4 4 4 4 4 4 3 3 3 3 2 2 2 2 3 3 3 3 2 2 2 1 1 1 1 1 0 0 0 0 -0 -0 -0 -0 -1
2 2 2 2 2 3 3 3 3 3 3 4 4 3 3 3 3 3 3 3 3 3 3 3 3 3 3 3 3 4 4 4 4 4 4 4 4 4 3 3 3 2 2 2 2 2 1 1 2 2 2 1 1 1 1 0 -0 -0 -0 -1 -1 -1 -1 -1 -1 -1 -1 -1 -1
2 2 2 3 3 3 3 3 3 3 3 3 3 3 3 3 3 3 3 3 3 3 3 3 3 4 4 4 4 4 4 4 4 4 4 3 3 3 2 2 2 2 2 1 1 1 1 0 0 0 0 0 -0 -0 -1 -1 -1 -1 -1 -1 -2 -2 -2 -2 -2 -2 -2 -2 -2
2 2 2 3 3 3 3 3 3 3 3 3 3 3 3 3 3 3 3 3 3 3 3 4 4 4 4 4 4 4 3 3 3 3 3 3 2 2 2 2 2 1 1 1 0 -0 -1 -1 -1 -1 -1 -1 -1 -1 -1 -2 -2 -2 -2 -2 -3 -3 -3 -3 -3 -3 -3 -3 -2
2 2 2 2 3 3 2 2 2 2 3 3 3 3 3 3 3 3 3 3 3 3 3 3 3 3 3 3 3 3 3 3 2 2 2 2 2 2 2 1 1 1 0 -0 -1 -1 -2 -2 -2 -2 -3 -3 -3 -2 -2 -2 -2 -3 -3 -3 -4 -4 -4 -4 -4 -4 -4 -3 -3
2 2 2 2 2 2 2 2 2 2 2 3 3 3 3 3 3 3 3 3 3 3 3 3 3 3 2 2 2 2 2 2 2 2 2 2 1 1 1 1 0 -0 -1 -1 -2 -2 -3 -3 -4 -4 -5 -5 -4 -3 -3 -3 -3 -4 -4 -4 -5 -5 -5 -5 -5 -5 -5 -5 -4
2 2 2 2 2 2 2 2 2 2 2 2 2 2 3 3 3 3 3 2 2 2 2 2 2 2 2 2 2 2 2 2 2 1 1 1 1 0 0 -0 -0 -1 -1 -2 -3 -3 -4 -5 -6 -6 -7 -6 -6 -5 -4 -4 -4 -5 -5 -5 -6 -6 -6 -6 -6 -5 -5 -5 -5
2 2 2 2 2 2 2 2 2 2 2 2 2 2 2 2 2 2 2 2 2 2 2 2 2 2 2 1 1 1 1 1 1 1 1 0 -0 -0 -1 -1 -1 -2 -2 -3 -4 -4 -5 -6 -7 -7 -7 -7 -7 -6 -5 -5 -5 -6 -6 -6 -6 -7 -6 -6 -6 -6 -6 -6 -6
2 2 2 2 2 2 2 2 2 2 2 2 2 2 2 2 2 2 2 2 1 1 1 1 1 1 1 1 1 1 1 1 0 0 -0 -0 -1 -1 -1 -2 -2 -2 -3 -4 -4 -5 -6 -6 -7 -7 -7 -7 -7 -7 -6 -6 -6 -6 -7 -7 -7 -7 -7 -6 -6 -6 -6 -7 -7
1 1 1 1 1 1 1 1 1 1 1 1 2 2 1 1 1 1 1 1 1 1 1 1 0 0 0 0 0 0 -0 -0 -0 -1 -1 -1 -1 -2 -2 -3 -3 -3 -4 -4 -5 -5 -6 -7 -7 -7 -7 -8 -8 -7 -7 -7 -7 -7 -7 -7 -7 -7 -6 -6 -6 -6 -7 -7 -7
1 1 1 1 1 1 1 1 1 1 1 1 1 1 1 1 1 1 1 0 0 0 0 -0 -0 -0 -0 -0 -0 -0 -1 -1 -1 -1 -1 -2 -2 -2 -3 -3 -3 -4 -4 -5 -6 -6 -6 -7 -7 -7 -7 -8 -8 -8 -7 -7 -7 -7 -8 -8 -8 -7 -7 -7 -7 -7 -7 -7 -7
0 0 0 1 1 1 1 1 1 1 1 1 1 1 1 1 0 0 0 -0 -0 -0 -1 -1 -1 -1 -1 -1 -1 -1 -1 -2 -2 -2 -2 -2 -2 -3 -3 -3 -4 -4 -5 -5 -6 -7 -7 -7 -7 -7 -8 -8 -8 -8 -7 -7 -7 -8 -8 -8 -8 -8 -7 -7 -7 -7 -7 -7 -7
0 0 0 0 0 0 0 1 1 1 1 1 0 0 0 0 0 -0 -0 -1 -1 -1 -1 -1 -1 -1 -2 -2 -2 -2 -2 -2 -2 -2 -2 -3 -3 -3 -3 -4 -5 -5 -6 -6 -7 -7 -7 -8 -8 -8 -8 -8 -8 -8 -7 -7 -8 -8 -8 -8 -8 -8 -8 -8 -7 -7 -7 -7 -7
-0 -0 -0 0 0 0 0 0 0 0 0 -0 -0 -0 -0 -0 -0 -1 -1 -1 -1 -1 -1 -2 -2 -2 -2 -2 -2 -2 -3 -3 -3 -3 -3 -3 -4 -4 -4 -5 -5 -6 -6 -7 -7 -8 -8 -8 -8 -8 -8 -8 -8 -8 -8 -8 -8 -8 -8 -8 -8 -8 -8 -7 -7 -7 -7 -7 -7
-0 -0 -0 -0 -0 -0 -0 -0 -0 -0 -0 -1 -1 -1 -1 -1 -1 -1 -1 -2 -2 -2 -2 -2 -2 -3 -3 -3 -3 -3 -3 -3 -4 -4 -4 -4 -5 -5 -5 -6 -6 -6 -7 -7 -8 -8 -8 -8 -8 -8 -8 -7 -8 -8 -8 -8 -9 -9 -9 -8 -8 -8 -8 -7 -7 -7 -7 -7 -7
Height
1449 1450 1451 1452 1452 1452 1452 1453 1454 1455 1455 1456 1458 1459 1460 1460 1460 1461 1462 1462 1462 1463 1463 1464 1465 1465 1466 1466 1467 1468 1469 1470 1470 1470 1471 1472 1473 1474 1474 1475 1475 1476 1476 1477 1477 1477 1478 1478 1479 1479 1479 1480 1480 1480 1480 1480 1480 1480 1480 1481 1481 1481 1480 1480 1480 1480 1480 1480 1479
1448 1449 1450 1450 1451 1451 1452 1452 1453 1454 1455 1456 1457 1458 1459 1459 1460 1460 1461 1462 1462 1462 1463 1463 1464 1465 1465 1466 1466 1467 1468 1469 1469 1470 1470 1471 1472 1473 1474 1474 1475 1475 1476 1476 1476 1477 1477 1477 1478 1478 1478 1478 1478 1479 1479 1479 1479 1479 1479 1479 1479 1479 1479 1478 1478 1478 1478 1477 1477
1447 1448 1449 1449 1450 1451 1452 1452 1453 1454 1454 1455 1456 1457 1458 1459 1459 1460 1460 1461 1462 1462 1462 1463 1464 1464 1465 1465 1466 1467 1468 1469 1469 1469 1470 1470 1471 1472 1473 1473 1474 1475 1475 1475 1476 1476 1477 1477 1477 1477 1477 1477 1477 1477 1477 1477 1478 1478 1478 1477 1477 1477 1477 1476 1476 1476 1475 1475 1475
1446 1446 1447 1448 1449 1450 1451 1452 1453 1453 1454 1455 1455 1457 1458 1458 1458 1459 1460 1460 1461 1461 1462 1463 1464 1465 1465 1465 1465 1466 1467 1468 1468 1469 1469 1470 1470 1471 1471 1472 1473 1474 1474 1475 1475 1476 1476 1476 1476 1476 1476 1476 1476 1476 1476 1476 1476 1476 1476 1475 1475 1475 1474 1474 1473 1473 1473 1472 1472
1445 1446 1446 1447 1448 1449 1450 1451 1452 1453 1453 1454 1455 1456 1457 1457 1458 1458 1459 1460 1460 1461 1462 1463 1464 1465 1465 1465 1465 1465 1466 1467 1467 1468 1469 1469 1470 1470 1470 1471 1472 1473 1474 1475 1475 1475 1475 1475 1475 1475 1475 1475 1475 1475 1475 1475 1475 1474 1473 1472 1472 1471 1471 1471 1471 1471 1471 1470 1470
1444 1445 1446 1446 1447 1448 1450 1451 1451 1452 1453 1454 1455 1455 1456 1457 1457 1457 1458 1459 1460 1461 1461 1462 1463 1464 1465 1465 1465 1465 1465 1466 1467 1467 1468 1468 1469 1470 1470 1471 1472 1473 1473 1474 1474 1474 1474 1474 1474 1474 1474 1474 1474 1474 1473 1472 1472 1471 1470 1470 1470 1470 1470 1470 1470 1470 1470 1470 1470
1443 1444 1445 1445 1446 1447 1449 1450 1451 1452 1452 1453 1454 1455 1456 1456 1457 1457 1458 1458 1459 1460 1461 1462 1462 1463 1464 1464 1464 1464 1465 1465 1466 1466 1467 1468 1469 1469 1470 1470 1471 1472 1472 1473 1473 1473 1473 1473 1473 1473 1473 1472 1471 1471 1470 1470 1470 1470 1470 1470 1470 1470 1470 1470 1470 1470 1470 1470 1470
1443 1444 1444 1445 1445 1446 1448 1449 1450 1451 1452 1453 1454 1454 1455 1456 1456 1456 1457 1458 1459 1460 1460 1461 1462 1462 1463 1463 1463 1464 1464 1465 1465 1466 1467 1467 1468 1469 1469 1470 1470 1471 1471 1471 1471 1471 1471 1472 1471 1471 1470 1470 1470 1469 1469 1469 1469 1469 1469 1469 1469 1469 1469 1470 1469 1469 1469 1469 1469
1442 1443 1444 1444 1445 1445 1447 1448 1450 1451 1451 1452 1453 1454 1455 1455 1455 1456 1457 1457 1458 1459 1460 1460 1461 1462 1462 1462 1463 1463 1464 1465 1465 1466 1466 1467 1467 1468 1468 1469 1469 1469 1470 1470 1470 1470 1470 1469 1469 1469 1469 1469 1469 1469 1469 1469 1468 1468 1468 1468 1468 1468 1469 1469 1469 1468 1468 1468 1468
1442 1443 1443 1444 1444 1445 1446 1448 1449 1450 1451 1452 1453 1453 1454 1455 1455 1456 1456 1457 1458 1458 1459 1460 1461 1461 1461 1462 1462 1462 1463 1464 1465 1465 1465 1466 1466 1467 1467 1467 1468 1468 1468 1469 1469 1468 1468 1467 1467 1468 1468 1469 1469 1469 1468 1468 1468 1467 1467 1467 1468 1468 1468 1468 1468 1467 1467 1467 1466
1442 1442 1443 1444 1444 1445 1446 1447 1448 1449 1450 1451 1452 1453 1453 1454 1455 1455 1456 1456 1457 1458 1459 1460 1460 1460 1461 1461 1461 1462 1463 1464 1464 1464 1465 1465 1465 1466 1466 1466 1467 1467 1467 1467 1467 1467 1466 1467 1467 1468 1468 1468 1468 1468 1467 1467 1467 1467 1467 1467 1467 1467 1467 1467 1467 1466 1466 1465 1465
1442 1442 1443 1444 1444 1445 1446 1447 1448 1449 1450 1451 1451 1452 1453 1453 1454 1455 1455 1456 1457 1458 1458 1459 1460 1460 1460 1460 1461 1461 1462 1463 1463 1463 1464 1464 1464 1465 1465 1465 1465 1465 1465 1465 1465 1465 1466 1466 1467 1467 1467 1467 1467 1466 1466 1466 1466 1466 1466 1466 1466 1466 1466 1465 1465 1465 1465 1465 1464
1442 1443 1443 1444 1445 1445 1446 1447 1447 1449 1450 1451 1451 1452 1453 1453 1454 1454 1455 1455 1456 1457 1457 1458 1459 1459 1460 1460 1460 1461 1461 1462 1462 1463 1463 1463 1464 1464 1464 1464 1464 1464 1464 1464 1465 1465 1465 1465 1466 1466 1466 1465 1465 1465 1465 1465 1465 1465 1465 1465 1465 1465 1465 1464 1464 1464 1464 1463 1463
1443 1443 1444 1444 1445 1446 1446 1446 1447 1448 1450 1451 1451 1452 1452 1453 1453 1454 1455 1455 1456 1456 1457 1457 1458 1458 1459 1459 1460 1460 1461 1461 1462 1462 1463 1463 1463 1463 1463 1463 1463 1463 1463 1463 1464 1464 1465 1465 1465 1465 1464 1464 1464 1464 1464 1464 1464 1464 1464 1464 1464 1464 1463 1463 1463 1463 1462 1462 1461
1443 1443 1444 1445 1445 1445 1446 1446 1447 1448 1449 1450 1451 1451 1452 1452 1453 1453 1454 1455 1455 1455 1456 1457 1457 1458 1458 1459 1459 1460 1460 1461 1461 1462 1462 1462 1462 1463 1463 1463 1463 1463 1463 1463 1464 1464 1465 1465 1464 1464 1463 1463 1463 1463 1463 1463 1463 1463 1463 1463 1463 1462 1462 1462 1462 1461 1461 1460 1460
1442 1443 1444 1444 1445 1445 1445 1446 1447 1448 1449 1450 1451 1451 1451 1452 1452 1453 1453 1454 1455 1455 1456 1456 1457 1457 1458 1458 1459 1460 1460 1461 1461 1461 1462 1462 1462 1462 1462 1462 1462 1463 1463 1464 1464 1464 1464 1464 1463 1463 1462 1462 1462 1462 1462 1462 1462 1462 1462 1462 1461 1461 1461 1460 1460 1460 1459 1459 1459
1441 1442 1443 1443 1444 1445 1445 1446 1447 1449 1450 1450 1451 1451 1451 1452 1452 1453 1453 1454 1454 1455 1455 1456 1456 1457 1458 1458 1459 1460 1460 1460 1461 1461 1462 1462 1462 1462 1462 1462 1462 1463 1463 1464 1464 1464 1463 1463 1462 1462 1461 1461 1461 1461 1461 1461 1461 1461 1461 1460 1460 1460 1459 1459 1458 1458 1458 1458 1457
1441 1442 1442 1443 1444 1445 1446 1446 1447 1449 1450 1450 1450 1451 1451 1452 1452 1453 1453 1454 1454 1455 1455 1456 1456 1457 1458 1458 1459 1459 1460 1460 1461 1462 1462 1463 1462 1462 1462 1462 1463 1463 1464 1464 1464 1463 1462 1462 1461 1461 1460 1460 1460 1460 1460 1460 1460 1460 1459 1459 1459 1458 1458 1457 1457 1457 1456 1456 1456
1441 1442 1442 1443 1444 1445 1446 1447 1448 1449 1450 1450 1450 1451 1452 1452 1453 1453 1453 1454 1454 1455 1455 1456 1456 1457 1458 1458 1459 1459 1460 1461 1461 1462 1463 1463 1463 1463 1463 1463 1463 1463 1463 1463 1463 1462 1461 1461 1460 1460 1460 1460 1460 1459 1459 1459 1459 1458 1458 1458 1457 1457 1456 1456 1455 1455 1455 1455 1454
1441 1442 1443 1444 1445 1445 1446 1447 1448 1449 1450 1450 1451 1451 1452 1452 1453 1453 1454 1454 1455 1455 1456 1456 1457 1457 1458 1458 1459 1460 1460 1461 1462 1463 1463 1463 1463 1463 1463 1463 1463 1463 1463 1462 1462 1461 1460 1460 1459 1459 1459 1459 1458 1458 1458 1458 1458 1457 1457 1457 1456 1456 1455 1455 1454 1454 1454 1454 1453
1442 1443 1444 1445 1445 1446 1446 1447 1448 1449 1450 1450 1451 1451 1452 1453 1453 1454 1454 1455 1455 1456 1457 1457 1458 1458 1458 1459 1459 1460 1461 1462 1462 1463 1463 1463 1463 1463 1463 1463 1463 1462 1462 1461 1460 1460 1459 1458 1458 1458 1458 1458 1457 1457 1457 1457 1457 1457 1456 1456 1455 1455 1454 1454 1453 1453 1453 1452 1452
1442 1443 1444 1445 1445 1446 1447 1448 1449 1449 1450 1450 1451 1451 1452 1453 1453 1454 1454 1455 1456 1457 1458 1458 1458 1458 1459 1459 1460 1460 1461 1462 1462 1463 1463 1463 1463 1463 1462 1462 1462 1461 1460 1460 1459 1458 1458 1457 1457 1457 1457 1457 1456 1456 1456 1456 1456 1455 1455 1455 1454 1453 1453 1452 1452 1451 1451 1450 1450
1443 1444 1445 1446 1446 1447 1448 1449 1449 1450 1450 1450 1451 1452 1452 1453 1454 1454 1455 1456 1457 1458 1458 1458 1459 1459 1459 1460 1460 1460 1461 1461 1462 1462 1462 1462 1462 1462 1461 1461 1460 1460 1459 1458 1458 1457 1457 1456 1456 1456 1455 1455 1455 1455 1455 1455 1455 1454 1454 1453 1453 1452 1451 1451 1450 1450 1450 1449 1448
1445 1445 1446 1447 1448 1448 1449 1450 1450 1451 1451 1451 1452 1452 1453 1454 1454 1455 1456 1457 1457 1458 1458 1458 1459 1459 1459 1460 1460 1460 1461 1461 1461 1462 1462 1462 1461 1461 1460 1460 1459 1459 1458 1458 1457 1456 1455 1455 1455 1455 1454 1454 1454 1454 1454 1454 1453 1453 1452 1452 1451 1450 1450 1449 1449 1448 1448 1447 1447
1446 1447 1447 1448 1449 1450 1450 1451 1451 1452 1452 1452 1453 1453 1454 1455 1455 1456 1457 1457 1458 1458 1458 1458 1459 1459 1459 1460 1460 1460 1460 1461 1461 1461 1461 1460 1460 1460 1459 1459 1458 1458 1458 1457 1457 1456 1455 1454 1453 1453 1453 1452 1452 1452 1452 1452 1451 1451 1450 1450 1449 1449 1448 1448 1447 1447 1446 1445 1445
1447 1448 1449 1450 1450 1451 1451 1452 1452 1452 1453 1453 1454 1455 1455 1456 1456 1457 1458 1458 1458 1458 1458 1458 1458 1459 1459 1459 1460 1460 1460 1460 1460 1460 1460 1459 1459 1459 1458 1458 1458 1458 1457 1457 1456 1455 1454 1452 1451 1451 1451 1451 1451 1451 1450 1450 1450 1449 1448 1447 1447 1446 1446 1445 1445 1445 1444 1444 1443
1449 1450 1450 1451 1452 1452 1452 1453 1453 1453 1454 1454 1455 1455 1456 1456 1456 1457 1457 1458 1458 1458 1458 1458 1458 1458 1459 1459 1459 1459 1459 1459 1459 1459 1459 1458 1458 1458 1458 1458 1457 1457 1456 1456 1455 1454 1453 1451 1450 1449 1450 1450 1450 1450 1449 1448 1448 1447 1446 1445 1445 1444 1444 1443 1443 1443 1442 1442 1441
1450 1451 1451 1452 1453 1453 1453 1454 1454 1454 1454 1455 1455 1455 1456 1456 1456 1457 1457 1457 1457 1458 1458 1458 1458 1458 1458 1458 1459 1459 1458 1458 1458 1458 1458 1458 1458 1458 1457 1457 1456 1456 1455 1454 1454 1453 1451 1450 1448 1448 1448 1448 1448 1448 1448 1447 1446 1445 1445 1444 1443 1443 1442 1442 1441 1441 1440 1440 1440
1451 1452 1452 1453 1454 1454 1454 1455 1455 1455 1455 1455 1456 1456 1456 1456 1457 1457 1457 1457 1458 1458 1458 1458 1458 1458 1458 1458 1458 1458 1458 1458 1458 1458 1457 1457 1457 1457 1456 1455 1455 1454 1454 1453 1452 1451 1450 1449 1448 1447 1447 1447 1447 1447 1446 1446 1445 1444 1444 1443 1442 1441 1441 1440 1440 1440 1439 1439 1438
1452 1453 1454 1454 1455 1455 1455 1455 1455 1456 1456 1456 1456 1457 1457 1457 1457 1458 1458 1458 1458 1458 1458 1458 1458 1458 1458 1457 1457 1457 1457 1457 1457 1456 1456 1456 1456 1455 1455 1454 1454 1453 1452 1451 1451 1450 1449 1448 1447 1446 1446 1446 1445 1445 1445 1445 1444 1444 1443 1442 1441 1440 1440 1439 1439 1438 1438 1437 1437
1454 1454 1455 1455 1455 1455 1455 1456 1456 1456 1456 1456 1457 1457 1457 1457 1458 1458 1458 1458 1457 1457 1457 1457 1457 1457 1457 1456 1456 1456 1456 1456 1455 1455 1455 1455 1455 1454 1454 1453 1453 1452 1451 1450 1450 1449 1448 1447 1446 1445 1445 1445 1444 1444 1444 1444 1444 1443 1442 1441 1440 1440 1439 1439 1438 1437 1437 1436 1436
1454 1455 1455 1455 1455 1455 1455 1456 1456 1456 1456 1457 1457 1457 1457 1457 1457 1457 1457 1457 1457 1456 1456 1456 1456 1456 1456 1455 1455 1455 1455 1455 1455 1455 1455 1454 1454 1453 1453 1452 1451 1451 1450 1450 1449 1448 1448 1447 1446 1445 1444 1444 1443 1443 1443 1443 1443 1442 1442 1441 1440 1439 1439 1438 1437 1437 1436 1435 1435
1455 1455 1455 1455 1455 1456 1456 1456 1456 1456 1456 1457 1457 1457 1457 1457 1457 1457 1456 1456 1456 1456 1456 1456 1455 1455 1455 1455 1455 1455 1454 1454 1454 1454 1453 1453 1453 1452 1451 1451 1450 1450 1449 1449 1448 1448 1447 1446 1445 1444 1443 1443 1442 1442 1442 1443 1442 1442 1441 1440 1440 1439 1438 1438 1437 1436 1436 1435 1435
1455 1456 1456 1456 1456 1456 1456 1456 1456 1457 1457 1457 1457 1457 1456 1456 1456 1456 1456 1456 1456 1456 1455 1455 1455 1455 1455 1454 1454 1454 1454 1453 1453 1453 1452 1452 1451 1451 1450 1450 1449 1449 1448 1448 1447 1447 1447 1446 1445 1444 1443 1442 1442 1442 1442 1442 1442 1441 1441 1440 1440 1439 1438 1438 1437 1436 1436 1435 1434
1456 1456 1456 1456 1457 1457 1457 1457 1457 1457 1457 1457 1456 1456 1456 1456 1456 1456 1456 1456 1455 1455 1455 1455 1455 1454 1454 1454 1453 1453 1453 1452 1452 1451 1451 1450 1450 1450 1449 1448 1448 1448 1447 1447 1447 1446 1446 1445 1444 1443 1443 1442 1441 1441 1441 1441 1441 1441 1440 1440 1439 1439 1438 1438 1437 1436 1436 1435 1434
1456 1457 1457 1457 1457 1457 1457 1457 1457 1457 1457 1457 1456 1456 1456 1456 1456 1456 1455 1455 1455 1455 1454 1454 1454 1453 1453 1453 1452 1452 1451 1451 1450 1450 1450 1449 1449 1449 1448 1447 1447 1447 1446 1446 1446 1446 1445 1445 1445 1444 1443 1442 1441 1441 1441 1441 1441 1440 1440 1439 1439 1438 1438 1438 1437 1436 1435 1435 1434
1457 1457 1457 1457 1457 1457 1457 1457 1457 1457 1457 1456 1456 1456 1456 1455 1455 1455 1455 1455 1454 1454 1453 1453 1453 1452 1452 1451 1451 1450 1450 1450 1449 1449 1449 1448 1448 1448 1447 1447 1446 1446 1446 1445 1445 1445 1445 1445 1445 1444 1443 1442 1441 1441 1442 1441 1441 1440 1439 1439 1438 1438 1437 1437 1436 1436 1435 1434 1434
1457 1457 1457 1457 1457 1457 1457 1457 1457 1456 1456 1456 1456 1455 1455 1455 1455 1455 1454 1454 1454 1453 1453 1452 1452 1451 1451 1450 1450 1450 1449 1449 1449 1448 1448 1447 1447 1447 1446 1446 1446 1445 1445 1445 1445 1445 1445 1445 1445 1445 1443 1442 1442 1442 1442 1441 1440 1440 1439 1438 1438 1437 1437 1436 1435 1435 1434 1433 1433
1457 1457 1457 1457 1457 1457 1457 1457 1456 1456 1456 1455 1455 1455 1455 1455 1454 1454 1454 1454 1454 1453 1453 1452 1451 1451 1450 1450 1450 1449 1449 1448 1448 1447 1447 1446 1446 1446 1446 1445 1445 1445 1445 1445 1445 1445 1445 1445 1445 1445 1444 1442 1442 1442 1441 1441 1440 1439 1438 1438 1437 1437 1436 1435 1435 1434 1433 1432 1432
1458 1458 1458 1457 1457 1457 1457 1456 1456 1456 1455 1455 1455 1455 1455 1454 1454 1454 1454 1453 1453 1453 1452 1452 1451 1451 1450 1450 1449 1449 1448 1448 1447 1447 1446 1446 1445 1445 1445 1445 1445 1444 1444 1444 1445 1445 1445 1445 1445 1445 1444 1443 1442 1441 1441 1440 1439 1438 1437 1437 1436 1436 1435 1434 1434 1433 1432 1431 1431
1458 1458 1458 1458 1457 1457 1457 1457 1456 1456 1456 1455 1455 1455 1455 1454 1454 1454 1453 1453 1453 1453 1452 1452 1451 1451 1450 1450 1449 1449 1448 1447 1447 1446 1446 1445 1445 1445 1445 1444 1444 1444 1444 1444 1444 1445 1445 1445 1445 1445 1444 1443 1441 1440 1440 1439 1438 1437 1436 1436 1435 1435 1434 1433 1433 1432 1431 1431 1430
Wind_Speed
19 18 18 18 18 18 18 18 18 18 18 18 18 18 18 19 19 19 19 20 19 18 17 16 18 19 20 19 17 17 17 18 18 18 17 18 18 18 17 16 14 12 11 11 10 10 9 10 11 12 12 12 13 13 14 14 15 16 17 18 18 19 21 22 23 24 25 25 26
18 18 18 18 19 19 19 18 17 17 17 17 17 17 17 19 18 18 19 20 19 18 17 17 19 20 20 18 17 18 18 19 19 18 18 18 18 18 16 14 12 11 12 12 12 12 12 13 14 14 13 14 14 15 16 16 17 17 18 18 19 20 20 21 22 22 22 22 23
17 17 18 20 21 20 19 18 17 17 16 16 16 16 17 18 18 18 18 19 19 18 18 18 19 20 19 18 17 17 18 19 19 19 19 18 17 16 14 12 12 12 13 14 14 14 15 16 16 15 15 15 16 17 17 17 17 18 18 18 18 18 18 18 18 18 18 18 18
18 19 20 22 21 20 19 18 17 16 16 15 15 16 17 18 18 17 17 18 19 18 17 18 19 19 18 17 17 17 18 18 18 18 18 17 15 14 13 12 13 14 15 15 16 17 18 18 16 15 16 16 17 17 17 17 17 16 17 17 17 18 17 18 18 18 18 18 17
20 21 22 21 20 19 18 18 16 15 14 14 15 15 17 18 17 16 16 17 17 17 17 18 19 19 18 17 17 17 17 17 17 17 16 15 14 13 13 13 14 15 15 16 17 18 18 16 15 16 16 17 17 16 16 16 16 16 18 19 20 20 20 20 19 19 18 17 16
22 22 21 19 19 19 19 17 15 14 13 14 14 15 16 17 17 15 14 14 15 16 17 18 18 18 17 17 17 17 17 17 17 17 16 15 14 13 13 14 15 15 16 17 17 16 15 15 15 16 16 15 15 15 16 17 17 19 19 20 20 20 19 17 16 15 14 13 13
22 22 20 19 19 20 19 17 14 13 13 13 14 15 16 16 16 15 14 14 15 16 16 17 18 18 17 17 17 16 16 17 17 17 16 15 14 14 15 16 16 16 16 15 14 14 14 15 15 15 16 16 16 17 17 17 17 17 17 17 17 16 15 13 13 12 12 12 12
22 21 20 19 20 20 18 15 13 13 14 15 15 16 16 16 16 15 14 14 15 16 16 17 17 17 17 17 16 16 16 16 17 17 16 16 16 16 17 16 15 14 13 12 13 13 14 15 15 15 15 16 16 15 15 15 15 14 14 14 13 12 11 11 11 11 11 11 12
20 19 19 20 19 19 17 14 14 14 16 16 16 16 16 15 14 14 14 14 15 15 15 15 16 16 16 16 15 15 15 15 15 15 14 15 15 15 14 13 12 11 11 12 13 14 14 14 15 15 14 14 13 12 12 12 12 12 12 11 11 10 10 11 11 11 11 12 13
18 19 19 19 18 17 16 14 12 12 13 14 15 14 13 13 13 13 13 13 14 14 14 14 15 15 15 15 15 15 15 14 12 11 10 11 12 11 11 10 10 11 12 13 14 14 14 14 14 14 13 12 10 9 9 9 9 10 10 10 11 11 12 12 12 13 13 13 14
17 18 18 17 15 15 15 13 10 8 9 11 12 11 11 11 12 13 13 13 13 13 14 14 15 15 14 14 15 15 14 12 9 7 7 8 9 9 9 9 10 11 12 13 13 13 13 13 13 12 10 9 8 8 8 9 10 10 11 11 12 12 13 14 14 14 15 15 15
16 17 16 14 13 13 13 12 9 7 6 8 10 11 10 11 12 12 12 12 13 13 13 14 13 13 13 13 13 13 11 9 6 5 6 7 7 8 8 9 10 11 11 11 11 11 12 12 11 10 9 8 9 9 10 10 11 12 12 12 13 13 14 15 15 16 17 17 17
13 12 11 10 11 11 12 11 10 7 6 8 11 12 12 12 12 12 11 11 12 12 12 12 12 11 11 11 11 10 9 7 6 5 5 5 6 7 7 8 9 9 9 9 10 10 10 9 8 8 9 10 10 11 12 12 12 13 13 14 14 15 16 16 17 17 18 18 18
10 9 8 9 10 11 10 10 9 7 6 8 11 12 12 12 12 11 11 11 11 11 11 10 10 9 9 9 9 8 7 6 5 5 4 4 5 5 6 6 7 7 8 9 9 9 8 8 8 9 10 11 12 12 13 13 13 14 15 15 16 17 17 18 18 18 18 18 18
9 8 8 9 9 9 8 8 7 6 6 9 10 12 12 12 12 12 11 11 10 10 9 9 8 8 8 8 8 7 6 6 5 4 4 4 4 4 5 5 6 7 8 8 8 8 8 8 9 10 11 12 13 13 14 14 14 15 16 17 17 18 19 19 19 19 19 19 19
10 10 10 9 7 6 7 7 6 6 7 9 11 12 12 13 13 12 12 11 10 10 9 8 8 8 7 7 6 6 5 5 4 4 3 3 4 4 5 5 6 7 7 8 8 8 9 9 10 11 12 13 13 14 15 15 16 16 17 18 19 19 19 19 19 19 19 20 20
11 11 10 7 5 4 6 8 8 7 9 11 12 13 14 14 13 13 12 11 10 10 10 9 9 8 8 7 6 5 4 4 3 3 4 4 4 5 5 6 6 7 8 8 9 9 10 11 12 12 13 14 14 15 16 16 17 18 18 19 19 19 19 19 19 19 20 20 20
10 10 8 5 4 6 9 11 10 10 11 13 14 15 15 15 14 13 12 11 11 11 11 10 9 8 7 6 5 4 3 3 3 4 4 5 5 5 6 6 7 8 8 9 10 10 11 12 13 13 14 14 15 16 16 17 17 17 18 18 18 18 18 18 19 19 19 20 20
9 8 6 6 7 10 13 14 13 13 14 15 16 17 16 16 15 13 12 11 10 9 9 8 7 6 5 4 3 3 3 3 4 5 5 6 6 6 7 7 8 8 9 10 11 12 12 13 13 14 14 15 15 15 16 16 16 16 17 17 17 17 18 18 19 19 19 19 20
9 8 8 9 12 14 16 17 17 16 17 17 18 18 17 16 14 12 11 10 8 7 6 5 5 4 4 3 3 3 3 4 5 5 6 6 6 7 7 8 8 9 10 11 11 12 12 13 13 14 14 15 15 15 15 15 16 16 17 17 17 18 18 19 19 20 20 20 21
10 10 11 13 16 18 19 19 19 19 19 19 18 18 16 14 12 11 9 8 7 6 5 5 5 4 4 4 3 4 4 5 5 6 6 7 7 8 8 9 9 10 10 11 12 12 13 13 14 14 15 15 15 15 16 16 16 17 18 18 19 19 19 20 20 21 21 22 22
12 13 14 16 18 19 20 20 20 20 20 20 18 17 15 13 12 10 9 8 7 6 6 5 4 4 3 3 4 4 5 5 6 7 7 8 8 8 9 9 10 10 11 11 12 13 14 14 15 15 15 16 16 16 17 17 17 18 19 19 20 20 21 21 22 22 23 23 23
14 15 16 17 18 18 19 19 19 19 19 18 17 16 14 13 12 10 9 8 7 6 5 4 3 3 3 3 4 5 6 7 8 8 8 8 8 8 9 9 10 10 11 12 13 14 15 16 16 17 17 17 17 17 18 18 19 19 20 20 21 21 21 22 22 23 23 23 24
14 15 16 16 16 17 17 17 16 16 15 13 13 12 11 10 9 8 7 6 6 5 4 4 3 4 4 5 6 7 8 8 8 8 8 8 7 8 8 9 10 11 12 13 14 15 17 18 18 19 19 19 19 19 19 20 20 21 21 22 22 22 22 22 23 23 23 23 23
15 15 15 16 16 16 15 14 13 12 11 10 9 8 7 7 6 5 5 5 5 5 5 4 5 5 6 7 7 8 8 8 7 7 7 7 8 8 9 11 12 13 13 14 15 16 18 19 20 21 21 21 21 21 22 22 22 22 23 23 23 23 23 23 23 23 23 23 23
17 17 17 16 16 15 14 13 12 12 11 9 8 7 7 6 5 5 5 5 5 5 5 5 6 6 6 6 6 6 6 6 7 7 8 9 10 11 12 13 13 14 14 15 15 16 18 20 22 22 22 22 22 23 23 23 23 23 24 24 24 24 24 23 23 23 23 22 22
19 18 17 16 15 14 14 13 12 11 10 10 9 8 7 6 6 5 5 5 5 4 4 4 4 4 4 5 5 6 7 7 8 10 11 12 12 13 14 14 14 15 15 15 16 16 18 20 22 23 23 22 22 22 22 22 23 23 23 24 24 24 24 23 23 23 23 23 22
17 16 15 14 14 13 12 11 11 10 9 8 8 7 6 5 4 3 3 2 2 2 3 3 3 4 5 6 7 8 9 10 11 11 12 13 13 14 14 14 14 15 15 16 16 17 17 19 21 22 22 21 21 21 21 21 22 22 23 23 23 23 23 23 23 23 22 22 22
16 15 14 13 12 11 11 10 10 9 8 7 6 5 4 3 2 1 1 2 2 3 3 4 5 6 7 8 9 10 11 11 12 12 13 13 13 14 14 14 14 15 15 16 16 16 17 17 19 20 20 20 19 19 19 20 20 20 21 21 22 22 21 21 21 21 21 20 20
15 13 12 11 11 10 10 9 9 8 7 6 5 4 3 2 1 1 2 3 3 4 5 6 7 8 8 9 10 10 11 11 12 12 12 13 13 13 14 14 14 14 14 15 15 14 14 15 17 18 18 18 18 18 18 18 18 19 19 20 20 20 20 19 19 19 18 18 18
13 12 11 11 10 9 9 8 7 6 6 5 4 2 1 1 1 2 3 3 4 5 6 7 8 8 9 9 10 10 11 11 12 12 12 12 12 13 13 13 13 13 12 12 12 12 12 13 15 16 16 17 17 17 17 17 17 17 18 18 18 18 18 17 16 16 16 16 16
11 10 9 9 8 8 7 6 6 5 4 3 2 1 1 1 2 3 4 5 6 6 7 7 8 8 9 9 10 10 10 11 11 11 11 11 11 11 12 12 12 11 10 9 9 9 10 11 12 13 14 15 16 16 16 16 16 16 17 17 17 16 15 14 14 14 14 14 14
10 9 8 7 6 6 5 5 4 3 3 2 1 2 2 3 3 4 5 5 6 6 6 7 7 7 8 8 9 9 10 10 10 10 10 10 10 10 10 10 10 9 8 8 7 7 8 9 10 11 13 14 16 16 17 16 16 16 16 15 14 13 11 11 11 11 12 12 12
8 7 6 6 5 5 4 4 3 3 2 2 2 2 2 3 3 4 4 4 5 5 5 6 6 7 7 8 8 9 9 9 9 9 9 9 9 9 9 9 9 7 6 6 6 6 6 7 9 11 12 14 16 17 17 17 16 16 15 13 11 9 8 8 9 10 10 11 11
8 7 6 5 5 5 4 4 3 3 2 2 2 2 2 3 3 3 3 4 4 5 5 6 7 7 8 8 9 9 9 10 10 10 10 10 9 9 9 9 8 7 6 5 6 5 5 6 8 10 13 14 15 16 16 16 16 15 13 11 8 7 6 7 8 9 10 11 11
8 7 7 6 6 6 5 5 4 3 3 2 2 2 3 3 3 4 4 5 6 6 7 7 8 8 9 9 10 10 11 11 11 11 11 11 10 10 9 9 8 7 6 5 5 5 5 6 8 11 13 14 14 15 15 15 13 12 10 8 6 6 6 7 8 9 10 11 13
9 9 8 8 7 7 6 6 5 4 4 3 4 4 4 5 5 6 6 7 7 8 8 9 9 10 10 11 12 12 12 12 12 12 12 11 10 10 9 9 8 7 6 5 5 5 5 5 7 10 13 14 15 14 14 12 11 9 8 7 6 7 8 9 10 11 12 14 15
10 10 9 9 8 8 7 6 6 5 5 6 6 6 6 7 7 8 8 8 8 9 10 10 11 11 12 13 13 13 13 13 13 13 12 11 10 10 9 8 7 6 5 4 5 5 5 5 6 9 13 15 14 13 11 11 10 9 8 7 8 9 10 11 12 14 15 17 18
11 10 10 9 9 8 8 7 7 7 7 8 8 8 8 8 8 9 9 9 9 10 10 11 11 12 13 13 14 14 14 14 13 12 12 11 10 9 8 7 6 6 5 3 4 5 6 6 7 9 12 14 13 11 9 11 12 11 10 9 10 11 12 13 15 16 17 18 19
11 10 10 9 9 9 8 8 8 8 9 8 9 9 9 9 10 10 10 10 10 11 11 11 12 12 13 13 13 13 13 13 13 12 11 10 9 9 7 6 5 5 3 2 2 5 7 7 8 9 12 13 11 8 7 10 12 13 13 12 13 14 15 16 16 17 18 19 19
10 10 9 9 9 8 8 9 9 9 9 9 9 9 10 10 10 11 11 11 11 11 12 12 12 12 13 13 13 12 12 12 11 10 9 8 8 7 6 5 4 3 2 0 3 5 7 8 8 9 10 11 10 7 6 8 12 14 15 15 16 17 18 18 18 18 17 17 16
Wind_Direction
230 232 236 241 244 244 244 245 246 246 242 238 236 240 246 246 241 236 235 235 234 230 227 224 220 216 211 208 207 207 207 205 203 204 209 217 223 227 230 231 232 235 238 243 246 247 245 242 244 251 261 274 283 288 289 288 287 286 285 285 284 283 282 282 281 280 278 277 275
228 230 233 236 239 241 243 245 248 249 245 237 230 232 241 247 242 235 233 235 235 231 227 223 220 215 211 208 208 210 210 211 211 213 217 224 228 229 229 228 230 232 233 235 238 242 245 249 254 261 272 282 288 289 288 286 285 284 283 283 282 281 280 280 279 278 277 276 275
225 228 231 233 234 235 237 240 244 245 243 235 227 229 239 248 244 235 230 231 233 232 228 225 221 217 212 211 213 214 216 218 220 223 225 227 227 226 224 223 224 228 231 234 239 244 249 253 259 268 277 284 286 286 284 282 282 281 281 282 284 285 285 284 283 283 284 285 285
221 226 229 230 229 229 231 235 238 240 237 230 224 229 240 247 244 235 228 228 230 231 229 227 224 220 217 216 218 219 221 222 223 225 226 225 224 223 222 223 227 231 235 240 244 248 250 254 261 270 278 280 281 280 279 279 281 284 288 294 299 302 305 306 305 304 304 304 304
219 226 230 227 222 223 226 230 233 233 230 224 223 230 240 246 243 235 227 225 228 230 230 228 226 223 222 221 222 223 223 224 225 225 225 224 224 224 226 229 233 236 239 242 245 248 253 259 267 273 275 276 277 278 281 286 293 301 307 312 314 315 316 316 315 314 314 313 311
220 228 231 225 218 218 221 222 224 225 223 221 223 231 240 245 242 236 228 224 227 230 230 228 226 223 221 221 220 220 221 221 222 222 223 224 224 225 228 232 235 238 240 242 246 252 260 267 271 273 274 277 283 289 296 304 311 316 319 320 318 318 318 318 315 314 312 309 305
223 230 232 222 212 209 210 212 216 219 220 222 226 232 239 243 239 234 228 224 226 229 229 227 225 222 220 219 218 218 218 217 215 214 215 217 220 222 226 230 234 237 242 247 254 262 267 270 273 278 284 292 301 307 311 315 318 319 319 317 313 312 312 311 308 306 304 301 297
226 234 233 220 207 200 199 202 207 211 217 221 226 231 236 239 235 230 225 223 224 226 226 225 223 222 222 222 221 220 219 217 215 213 212 212 216 221 226 231 237 244 252 260 266 270 273 278 285 295 303 310 315 316 315 314 314 313 310 307 305 303 302 299 297 295 293 291 290
230 236 230 214 199 190 189 194 202 209 213 216 221 225 228 229 229 227 225 222 220 220 222 223 224 225 226 226 224 223 221 220 220 218 216 217 218 224 232 241 250 260 267 272 276 279 286 294 304 311 315 317 316 313 309 308 307 305 302 298 293 290 287 285 284 284 283 283 283
233 232 221 203 188 180 181 190 202 210 211 210 214 216 216 214 214 217 218 217 216 217 220 224 227 229 228 226 224 222 221 220 219 216 216 221 227 236 246 257 266 272 277 281 285 292 300 308 314 315 313 310 307 302 299 298 298 295 292 286 282 279 279 279 279 279 280 280 280
226 218 206 192 182 178 182 190 200 212 214 209 208 207 204 199 198 200 204 208 211 215 218 221 224 225 224 223 221 220 218 216 212 210 219 230 240 249 259 268 274 279 284 289 295 300 305 308 308 305 300 293 289 286 284 283 285 285 282 277 275 276 277 278 279 280 281 281 280
209 199 189 181 178 183 189 193 198 209 218 212 205 201 198 193 189 189 193 200 206 209 211 213 214 215 216 217 216 214 211 208 205 212 227 240 250 258 268 274 280 285 290 294 297 300 301 300 296 288 281 276 276 276 276 277 278 278 276 275 275 276 277 279 280 281 282 282 282
189 179 173 174 180 188 193 195 196 203 216 214 204 199 196 192 186 185 188 195 200 202 202 202 203 205 207 209 208 206 201 196 198 209 225 240 252 263 272 278 282 287 291 293 294 295 293 286 277 272 274 276 278 278 277 277 277 277 276 277 277 278 279 279 280 281 281 281 281
166 162 166 176 184 187 188 190 191 198 211 214 204 196 191 187 181 179 181 187 191 193 195 195 196 198 200 202 204 202 197 192 194 201 214 230 246 260 270 276 281 286 289 290 289 285 277 268 265 269 275 280 281 280 279 278 279 279 279 279 280 280 280 280 280 280 280 280 281
155 159 168 172 176 177 177 178 182 193 206 207 199 191 184 177 171 170 173 178 182 185 187 189 190 192 196 198 201 200 197 192 190 193 204 221 238 252 263 272 278 282 283 281 276 269 263 261 265 271 277 280 280 279 278 278 279 280 280 280 280 280 280 280 280 280 280 281 282
160 164 165 164 163 164 166 169 174 187 197 196 189 181 174 168 165 165 168 172 175 178 179 179 180 182 184 186 188 191 192 192 192 195 205 221 236 248 260 268 272 273 270 265 261 259 261 265 269 273 276 277 277 276 276 277 277 278 278 278 277 278 278 279 281 282 283 284 284
159 160 159 159 161 168 172 172 175 183 189 185 177 170 166 163 162 162 164 166 168 169 169 169 170 171 172 176 181 188 194 197 201 208 217 229 238 248 256 261 262 260 258 256 256 259 263 267 270 273 273 273 272 272 273 274 274 275 275 276 276 277 278 279 281 282 284 285 286
153 154 159 168 183 187 182 175 175 180 183 178 169 164 161 160 159 159 160 162 164 164 164 165 166 167 170 175 183 194 201 203 211 218 225 233 240 247 251 253 253 253 254 256 258 261 264 267 269 270 270 270 270 270 271 273 274 275 276 277 278 279 280 281 282 283 285 286 287
153 161 172 181 186 184 178 172 172 176 177 172 167 162 160 158 158 159 160 162 164 165 164 162 160 161 164 169 181 194 200 203 213 222 231 238 244 248 250 251 252 254 256 259 261 263 266 268 270 271 271 272 272 273 275 276 278 279 280 281 282 282 283 284 285 286 286 287 288
165 173 177 175 174 170 166 163 165 168 168 166 164 161 158 157 157 159 160 160 160 157 151 145 141 140 144 154 165 181 197 208 219 228 237 244 247 250 252 253 256 258 261 264 266 269 272 274 275 275 276 277 278 280 281 282 283 283 283 284 284 285 285 286 286 287 287 287 287
170 172 171 169 165 160 155 155 157 157 158 158 158 156 155 153 151 149 146 144 140 135 131 129 128 132 140 153 168 188 207 221 232 240 246 251 253 255 257 260 263 267 271 273 276 278 279 279 280 280 280 281 282 283 284 284 285 285 285 285 285 285 286 286 286 287 287 287 287
163 164 164 163 158 154 151 150 150 150 150 151 151 149 146 142 138 134 131 129 128 129 131 134 138 145 156 173 192 210 226 237 245 250 254 257 260 262 265 269 274 278 282 284 285 285 284 283 282 282 282 282 283 284 284 285 285 285 285 284 284 285 285 286 286 286 287 287 287
155 156 156 155 153 151 149 149 149 149 149 147 144 140 137 135 134 132 132 132 135 140 145 151 161 175 194 213 226 235 242 247 251 254 257 261 265 270 275 280 284 287 290 291 290 289 287 286 285 284 284 284 285 286 286 286 286 286 285 285 285 285 286 286 287 287 287 287 287
149 150 150 151 150 148 147 147 148 148 147 143 137 132 131 132 136 139 143 148 154 162 171 183 199 216 228 236 240 243 246 249 252 256 260 265 271 278 284 289 292 293 294 294 293 291 290 289 288 288 288 288 288 289 289 289 288 287 287 287 287 287 287 287 287 287 287 287 287
139 141 141 141 141 141 141 141 140 137 134 130 126 124 126 131 141 150 160 167 175 184 193 204 216 226 233 237 241 244 248 252 257 263 271 277 284 289 292 295 295 295 295 295 294 294 293 292 291 291 291 291 291 291 292 292 291 291 291 290 290 290 290 289 289 289 289 289 290
125 126 126 126 126 127 127 127 126 124 122 121 123 125 131 138 150 160 170 178 186 193 200 208 217 225 233 241 247 255 262 268 276 283 289 293 295 296 296 295 295 294 294 294 294 295 296 295 293 292 293 293 294 295 295 295 295 295 295 295 295 295 295 294 293 293 293 293 294
113 113 113 113 114 116 117 117 117 118 118 120 124 129 135 142 150 160 170 182 193 202 210 219 228 241 253 266 274 280 284 287 290 292 294 295 295 295 295 294 294 294 295 295 295 296 297 296 295 294 294 296 297 298 298 299 299 299 300 300 300 300 300 300 300 299 298 298 298
106 106 106 107 109 110 111 112 114 115 116 119 123 128 132 137 144 157 176 198 220 238 253 263 272 279 284 286 286 287 288 290 290 291 291 292 292 293 294 295 296 296 297 297 297 298 298 296 295 295 296 298 299 300 300 301 301 302 303 304 305 305 306 306 305 304 304 303 302
106 107 108 109 110 111 114 116 118 119 121 122 124 125 126 131 142 168 214 251 269 275 279 281 282 283 283 283 284 285 287 288 289 290 292 293 294 295 296 297 298 298 298 298 298 299 298 297 296 297 298 300 301 302 302 303 304 306 307 309 310 311 312 312 312 311 309 307 306
114 115 117 118 119 121 123 123 123 123 122 122 122 122 127 140 171 220 248 263 270 273 277 279 280 282 283 284 286 289 290 291 293 294 295 296 297 297 297 297 298 299 299 300 301 302 301 300 299 300 302 303 303 303 304 306 308 311 314 316 318 320 321 321 319 317 315 312 309
118 120 121 122 122 122 120 118 115 112 110 109 109 113 124 180 250 267 274 280 282 285 286 287 289 290 291 292 294 295 296 296 297 297 298 298 298 298 298 299 299 300 301 304 306 307 306 305 305 306 308 308 307 307 308 311 315 319 323 326 329 330 330 329 326 323 320 317 314
113 114 114 115 113 110 106 102 98 94 90 86 78 50 340 308 300 299 297 297 298 298 299 299 300 300 300 299 300 299 299 299 299 299 300 300 301 301 301 302 301 302 304 308 311 315 318 318 317 318 318 316 314 313 315 319 323 328 332 336 339 339 337 334 331 328 325 322 320
105 105 106 104 101 98 95 91 85 79 67 51 19 343 321 312 307 305 304 303 303 304 305 305 304 304 303 303 303 303 302 302 303 304 305 306 307 308 308 307 306 305 307 313 318 328 338 337 334 332 329 325 322 322 324 327 331 335 340 344 345 344 341 337 335 331 329 327 327
101 101 100 99 96 94 91 86 78 66 49 18 349 329 320 315 311 309 308 308 308 309 309 309 310 310 309 309 309 309 309 310 311 313 316 318 321 321 320 318 315 313 315 322 329 339 348 347 343 340 336 333 330 330 331 335 338 342 346 350 349 346 343 340 337 335 334 334 334
99 97 96 95 92 88 84 78 71 62 48 24 2 347 337 331 326 326 327 328 328 328 326 325 324 324 323 321 321 320 321 322 324 326 329 332 334 334 331 329 326 324 325 333 339 347 352 350 343 340 338 337 335 335 337 341 344 348 352 354 350 344 339 339 338 337 337 338 337
94 91 88 85 82 79 76 73 69 65 59 49 35 24 14 4 356 354 353 352 350 347 342 340 337 335 333 332 330 330 331 333 335 336 338 339 341 340 337 335 333 329 329 338 343 350 356 356 348 342 339 337 336 337 341 347 352 355 356 354 347 340 338 337 335 335 335 336 335
85 82 79 76 74 72 70 67 64 62 55 46 37 30 22 15 10 7 4 2 358 352 347 344 342 339 337 337 337 337 337 339 340 340 340 340 341 340 338 336 334 329 327 333 342 349 358 5 356 346 338 333 334 339 348 358 2 1 357 351 343 340 339 338 335 333 332 332 331
76 73 70 67 65 62 59 56 51 45 38 31 25 21 16 12 9 6 4 2 359 354 349 346 344 341 340 340 340 340 340 340 341 340 339 338 337 337 336 334 331 327 322 323 340 353 5 18 6 349 338 335 338 348 2 12 10 3 354 346 341 338 338 336 334 331 330 329 328
66 63 60 57 54 51 46 41 36 31 27 22 19 15 10 6 3 1 359 358 356 353 350 347 345 343 343 343 342 342 340 339 339 338 336 335 334 334 333 331 328 323 316 314 345 5 14 18 10 355 346 343 347 360 16 19 10 1 351 345 340 337 335 333 330 328 327 326 326
58 54 51 47 44 40 36 31 28 25 21 17 14 10 6 2 360 357 356 355 353 351 349 347 346 345 345 344 343 341 339 338 337 336 335 334 333 333 332 329 324 318 308 304 18 26 21 16 13 5 356 350 352 2 16 12 3 356 348 342 338 335 332 329 327 326 325 325 325
50 47 43 40 36 32 28 25 23 20 17 13 10 6 3 360 358 356 354 353 351 350 349 348 347 346 346 344 343 341 339 337 336 336 335 334 334 334 333 330 325 317 301 136 64 42 28 19 16 13 4 355 349 347 349 349 348 345 342 338 335 333 331 328 327 326 326 327 328